STAR ONE D2

Last updated on Sat Apr 13 2024 01:02:40 GMT+0100 (British Summer Time)

1 49055U 21069A 24103.50688691 -.00000273 00000+0 00000+0 0 9995 2 49055 0.0199 181.0597 0001016 226.4236 266.1154 1.00269204 9950
UTC large
Height (km)
Speed (km/s)
/
Latitude / Longitude
Inclination (degrees)
Orbital Period (minutes)
Azimuth
Elevation
Range (km)
Doppler Factor

Next 0 passes for location: London (51.5072 / 0.1276)

Sorry there are no passes over London.